| time (UTC) | temp C | wind direction | speed KPH | gust KPH | rain 1hr cm | rain 24hr cm | rain mn cm | humidity % | barometer mb |
| 20260906022732 | 25 | 228 | 0.0 | 0.0 | 0.00 | 0.00 | 0.00 | 87 | 1009.4 |
| 20260906022227 | 26 | 201 | 1.6 | 1.6 | 0.00 | 0.00 | 0.00 | 86 | 1009.4 |
| 20260906021723 | 26 | 41 | 0.0 | 1.6 | 0.00 | 0.00 | 0.00 | 85 | 1009.3 |
| 20260906021222 | 26 | 179 | 0.0 | 0.0 | 0.00 | 0.00 | 0.00 | 84 | 1009.1 |
| 20260906020717 | 26 | 203 | 0.0 | 0.0 | 0.00 | 0.00 | 0.00 | 83 | 1009.0 |
| 20260906020212 | 26 | 128 | 0.0 | 0.0 | 0.00 | 0.00 | 0.00 | 82 | 1009.6 |
| 20260906015706 | 27 | 111 | 0.0 | 0.0 | 0.00 | 0.00 | 0.00 | 82 | 1009.1 |
| 20260906015205 | 27 | 34 | 0.0 | 3.2 | 0.00 | 0.00 | 0.00 | 81 | 1009.1 |
| 20260906014705 | 27 | 273 | 0.0 | 1.6 | 0.00 | 0.00 | 0.00 | 80 | 1009.0 |
| 20260906014201 | 27 | 163 | 0.0 | 0.0 | 0.00 | 0.00 | 0.00 | 79 | 1008.9 |
| 20260906013657 | 27 | 197 | 0.0 | 1.6 | 0.00 | 0.00 | 0.00 | 77 | 1008.9 |
| 20260906013152 | 28 | 151 | 0.0 | 1.6 | 0.00 | 0.00 | 0.00 | 78 | 1009.0 |
| 20260906012651 | 28 | 156 | 0.0 | 3.2 | 0.00 | 0.00 | 0.00 | 78 | 1008.9 |
| 20260906012146 | 28 | 207 | 0.0 | 8.0 | 0.00 | 0.00 | 0.00 | 78 | 1009.0 |
| 20260906011642 | 28 | 32 | 0.0 | 1.6 | 0.00 | 0.00 | 0.00 | 86 | 1009.0 |
| 20260906011136 | 28 | 56 | 0.0 | 3.2 | 0.00 | 0.00 | 0.00 | 82 | 1008.8 |
| 20260906010626 | 28 | 65 | 0.0 | 0.0 | 0.00 | 0.00 | 0.00 | 87 | 1008.7 |
| 20260906010123 | 28 | 46 | 0.0 | 1.6 | 0.00 | 0.00 | 0.00 | 86 | 1008.7 |
| 20260906005622 | 28 | 241 | 0.0 | 1.6 | 0.00 | 0.00 | 0.00 | 87 | 1008.7 |
| 20260906005121 | 27 | 79 | 3.2 | 4.8 | 0.00 | 0.00 | 0.00 | 87 | 1008.5 |
| 20260906004620 | 27 | 7 | 3.2 | 3.2 | 0.00 | 0.00 | 0.00 | 89 | 1008.8 |
| 20260906004115 | 28 | 249 | 0.0 | 0.0 | 0.00 | 0.00 | 0.00 | 89 | 1009.1 |
| 20260906003611 | 28 | 225 | 1.6 | 1.6 | 0.00 | 0.00 | 0.00 | 89 | 1008.9 |
| 20260906003106 | 28 | 209 | 0.0 | 0.0 | 0.00 | 0.00 | 0.00 | 88 | 1008.8 |
| 20260906002601 | 28 | 189 | 0.0 | 1.6 | 0.00 | 0.00 | 0.00 | 88 | 1009.0 |
| 20260906002056 | 28 | 168 | 0.0 | 0.0 | 0.00 | 0.00 | 0.00 | 87 | 1008.9 |
| 20260906001551 | 28 | 168 | 0.0 | 0.0 | 0.00 | 0.00 | 0.00 | 86 | 1009.0 |
| 20260906001045 | 28 | 168 | 0.0 | 0.0 | 0.00 | 0.00 | 0.00 | 85 | 1008.8 |
| 20260906000541 | 29 | 166 | 0.0 | 0.0 | 0.00 | 0.00 | 0.00 | 84 | 1008.9 |
| 20260906000036 | 30 | 193 | 0.0 | 0.0 | 0.00 | 0.00 | 0.00 | 83 | 1008.7 |
| 20260905235536 | 30 | 196 | 0.0 | 0.0 | 0.00 | 0.00 | 0.00 | 81 | 1008.7 |
| 20260905235031 | 30 | 196 | 0.0 | 0.0 | 0.00 | 0.00 | 0.00 | 79 | 1008.7 |
| 20260905234527 | 30 | 196 | 0.0 | 0.0 | 0.00 | 0.00 | 0.00 | 77 | 1009.0 |
| 20260905234027 | 31 | 196 | 0.0 | 0.0 | 0.00 | 0.00 | 0.00 | 75 | 1008.9 |
| 20260905233521 | 31 | 197 | 0.0 | 0.0 | 0.00 | 0.00 | 0.00 | 76 | 1008.8 |
| 20260905233021 | 32 | 181 | 0.0 | 0.0 | 0.00 | 0.00 | 0.00 | 72 | 1008.8 |
| 20260905232517 | 32 | 189 | 0.0 | 0.0 | 0.00 | 0.00 | 0.00 | 72 | 1008.9 |
| 20260905232012 | 33 | 190 | 0.0 | 0.0 | 0.00 | 0.00 | 0.00 | 69 | 1008.8 |
| 20260905231508 | 33 | 235 | 0.0 | 1.6 | 0.00 | 0.00 | 0.00 | 66 | 1008.6 |
| 20260905231004 | 35 | 259 | 0.0 | 1.6 | 0.00 | 0.00 | 0.00 | 63 | 1008.7 |
| 20260905230503 | 35 | 251 | 0.0 | 0.0 | 0.00 | 0.00 | 0.00 | 62 | 1008.8 |
| 20260905230001 | 35 | 274 | 0.0 | 0.0 | 0.00 | 0.00 | 0.00 | 61 | 1008.6 |
| 20260905225456 | 35 | 247 | 0.0 | 0.0 | 0.00 | 0.00 | 0.00 | 60 | 1008.5 |
| 20260905224951 | 35 | 234 | 0.0 | 0.0 | 0.00 | 0.00 | 0.00 | 61 | 1008.7 |
| 20260905224446 | 35 | 199 | 1.6 | 1.6 | 0.00 | 0.00 | 0.00 | 60 | 1008.9 |
| 20260905223945 | 35 | 247 | 1.6 | 3.2 | 0.00 | 0.00 | 0.00 | 58 | 1009.0 |
| 20260905223443 | 35 | 184 | 1.6 | 1.6 | 0.00 | 0.00 | 0.00 | 56 | 1008.8 |
| 20260905222944 | 35 | 126 | 1.6 | 3.2 | 0.00 | 0.00 | 0.00 | 58 | 1008.5 |
| 20260905222438 | 35 | 352 | 0.0 | 3.2 | 0.00 | 0.00 | 0.00 | 59 | 1008.7 |
| 20260905221934 | 36 | 238 | 3.2 | 4.8 | 0.00 | 0.00 | 0.00 | 59 | 1008.8 |
| 20260905221430 | 36 | 287 | 0.0 | 1.6 | 0.00 | 0.00 | 0.00 | 60 | 1008.7 |
| 20260905220926 | 36 | 152 | 0.0 | 1.6 | 0.00 | 0.00 | 0.00 | 60 | 1008.8 |
| 20260905220422 | 35 | 279 | 0.0 | 1.6 | 0.00 | 0.00 | 0.00 | 64 | 1008.8 |
| 20260905215921 | 34 | 138 | 0.0 | 1.6 | 0.00 | 0.00 | 0.00 | 64 | 1008.8 |
| 20260905215416 | 35 | 267 | 0.0 | 1.6 | 0.00 | 0.00 | 0.00 | 62 | 1008.9 |
| 20260905214913 | 36 | 181 | 0.0 | 1.6 | 0.00 | 0.00 | 0.00 | 54 | 1008.7 |
| 20260905214408 | 37 | 246 | 0.0 | 1.6 | 0.00 | 0.00 | 0.00 | 54 | 1008.8 |
| 20260905213908 | 37 | 218 | 0.0 | 1.6 | 0.00 | 0.00 | 0.00 | 50 | 1008.8 |
| 20260905213404 | 37 | 237 | 1.6 | 3.2 | 0.00 | 0.00 | 0.00 | 48 | 1008.7 |
| 20260905212900 | 37 | 245 | 0.0 | 1.6 | 0.00 | 0.00 | 0.00 | 53 | 1008.7 |
| 20260905212354 | 37 | 246 | 0.0 | 4.8 | 0.00 | 0.00 | 0.00 | 50 | 1008.6 |
| 20260905211847 | 37 | 32 | 0.0 | 3.2 | 0.00 | 0.00 | 0.00 | 49 | 1008.9 |
| 20260905211344 | 38 | 242 | 3.2 | 8.0 | 0.00 | 0.00 | 0.00 | 49 | 1008.8 |
| 20260905210840 | 38 | 115 | 1.6 | 3.2 | 0.00 | 0.00 | 0.00 | 48 | 1008.9 |
| 20260905210340 | 38 | 153 | 1.6 | 1.6 | 0.00 | 0.00 | 0.00 | 49 | 1008.9 |
| 20260905205838 | 38 | 244 | 1.6 | 3.2 | 0.00 | 0.00 | 0.00 | 48 | 1009.1 |
| 20260905205333 | 38 | 227 | 1.6 | 4.8 | 0.00 | 0.00 | 0.00 | 48 | 1009.1 |
| 20260905204832 | 38 | 297 | 1.6 | 1.6 | 0.00 | 0.00 | 0.00 | 48 | 1009.0 |
| 20260905204329 | 38 | 209 | 3.2 | 3.2 | 0.00 | 0.00 | 0.00 | 48 | 1009.4 |
| 20260905203827 | 38 | 274 | 1.6 | 3.2 | 0.00 | 0.00 | 0.00 | 54 | 1009.3 |
| 20260905203324 | 38 | 250 | 1.6 | 1.6 | 0.00 | 0.00 | 0.00 | 54 | 1009.3 |
| 20260905202819 | 37 | 183 | 0.0 | 1.6 | 0.00 | 0.00 | 0.00 | 51 | 1009.6 |
| 20260905202314 | 36 | 19 | 0.0 | 4.8 | 0.00 | 0.00 | 0.00 | 50 | 1009.4 |
| 20260905201809 | 37 | 138 | 4.8 | 8.0 | 0.00 | 0.00 | 0.00 | 50 | 1009.6 |
| 20260905201305 | 37 | 267 | 1.6 | 3.2 | 0.00 | 0.00 | 0.00 | 50 | 1009.7 |
| 20260905200759 | 37 | 144 | 4.8 | 4.8 | 0.00 | 0.00 | 0.00 | 50 | 1009.7 |
| 20260905200255 | 36 | 41 | 3.2 | 4.8 | 0.00 | 0.00 | 0.00 | 52 | 1009.7 |
| 20260905195753 | 36 | 189 | 6.4 | 9.7 | 0.00 | 0.00 | 0.00 | 53 | 1009.8 |
| 20260905195248 | 37 | 169 | 8.0 | 9.7 | 0.00 | 0.00 | 0.00 | 51 | 1009.9 |
| 20260905194744 | 37 | 225 | 4.8 | 8.0 | 0.00 | 0.00 | 0.00 | 51 | 1010.1 |
| 20260905194243 | 37 | 203 | 4.8 | 8.0 | 0.00 | 0.00 | 0.00 | 52 | 1010.0 |
| 20260905193743 | 37 | 269 | 1.6 | 11.3 | 0.00 | 0.00 | 0.00 | 52 | 1010.2 |
| 20260905193238 | 37 | 101 | 3.2 | 8.0 | 0.00 | 0.00 | 0.00 | 52 | 1010.1 |
| 20260905192733 | 37 | 359 | 1.6 | 1.6 | 0.00 | 0.00 | 0.00 | 55 | 1010.0 |
| 20260905192229 | 37 | 155 | 1.6 | 4.8 | 0.00 | 0.00 | 0.00 | 53 | 1010.3 |
| 20260905191729 | 37 | 277 | 8.0 | 9.7 | 0.00 | 0.00 | 0.00 | 52 | 1010.1 |
| 20260905191227 | 37 | 103 | 6.4 | 8.0 | 0.00 | 0.00 | 0.00 | 52 | 1010.3 |
| 20260905190726 | 37 | 354 | 0.0 | 8.0 | 0.00 | 0.00 | 0.00 | 53 | 1010.1 |
| 20260905190225 | 37 | 259 | 1.6 | 4.8 | 0.00 | 0.00 | 0.00 | 53 | 1010.4 |
| 20260905185724 | 37 | 286 | 1.6 | 4.8 | 0.00 | 0.00 | 0.00 | 51 | 1010.4 |
| 20260905185219 | 36 | 243 | 0.0 | 3.2 | 0.00 | 0.00 | 0.00 | 57 | 1010.6 |
| 20260905184713 | 36 | 338 | 0.0 | 0.0 | 0.00 | 0.00 | 0.00 | 60 | 1010.6 |
| 20260905184212 | 36 | 352 | 1.6 | 3.2 | 0.00 | 0.00 | 0.00 | 54 | 1010.7 |
| 20260905183706 | 36 | 45 | 0.0 | 1.6 | 0.00 | 0.00 | 0.00 | 58 | 1011.0 |
| 20260905183201 | 37 | 54 | 0.0 | 1.6 | 0.00 | 0.00 | 0.00 | 54 | 1010.7 |
| 20260905182701 | 37 | 333 | 1.6 | 1.6 | 0.00 | 0.00 | 0.00 | 54 | 1010.7 |
| 20260905182201 | 37 | 346 | 1.6 | 3.2 | 0.00 | 0.00 | 0.00 | 52 | 1010.9 |
| 20260905181656 | 37 | 42 | 1.6 | 1.6 | 0.00 | 0.00 | 0.00 | 55 | 1011.1 |
| 20260905181155 | 37 | 259 | 1.6 | 3.2 | 0.00 | 0.00 | 0.00 | 55 | 1011.3 |
| 20260905180649 | 37 | 279 | 1.6 | 1.6 | 0.00 | 0.00 | 0.00 | 58 | 1011.1 |
| 20260905180145 | 36 | 311 | 0.0 | 1.6 | 0.00 | 0.00 | 0.00 | 59 | 1011.3 |
| 20260905175644 | 36 | 11 | 1.6 | 3.2 | 0.00 | 0.00 | 0.00 | 55 | 1011.2 |
| 20260905175140 | 36 | 302 | 1.6 | 3.2 | 0.00 | 0.00 | 0.00 | 60 | 1011.4 |
| 20260905174635 | 37 | 42 | 4.8 | 4.8 | 0.00 | 0.00 | 0.00 | 54 | 1011.4 |
| 20260905174131 | 36 | 184 | 0.0 | 3.2 | 0.00 | 0.00 | 0.00 | 55 | 1011.4 |
| 20260905173626 | 36 | 80 | 1.6 | 3.2 | 0.00 | 0.00 | 0.00 | 56 | 1011.6 |
| 20260905173122 | 36 | 4 | 1.6 | 4.8 | 0.00 | 0.00 | 0.00 | 56 | 1011.5 |
| 20260905172621 | 36 | 210 | 1.6 | 4.8 | 0.00 | 0.00 | 0.00 | 59 | 1011.7 |
| 20260905172116 | 36 | 265 | 4.8 | 4.8 | 0.00 | 0.00 | 0.00 | 55 | 1011.5 |
| 20260905171612 | 36 | 31 | 0.0 | 1.6 | 0.00 | 0.00 | 0.00 | 62 | 1011.8 |
| 20260905171108 | 36 | 355 | 1.6 | 3.2 | 0.00 | 0.00 | 0.00 | 60 | 1011.6 |
| 20260905170604 | 36 | 53 | 1.6 | 1.6 | 0.00 | 0.00 | 0.00 | 58 | 1011.7 |
| 20260905170059 | 36 | 27 | 1.6 | 1.6 | 0.00 | 0.00 | 0.00 | 59 | 1011.6 |
| 20260905165554 | 36 | 241 | 1.6 | 3.2 | 0.00 | 0.00 | 0.00 | 62 | 1011.8 |
| 20260905165049 | 36 | 252 | 3.2 | 4.8 | 0.00 | 0.00 | 0.00 | 59 | 1011.8 |
| 20260905164544 | 36 | 213 | 0.0 | 1.6 | 0.00 | 0.00 | 0.00 | 60 | 1011.9 |
| 20260905164038 | 35 | 339 | 0.0 | 3.2 | 0.00 | 0.00 | 0.00 | 63 | 1011.7 |
| 20260905163534 | 35 | 14 | 1.6 | 3.2 | 0.00 | 0.00 | 0.00 | 59 | 1011.8 |
| 20260905163030 | 35 | 236 | 1.6 | 4.8 | 0.00 | 0.00 | 0.00 | 62 | 1011.8 |
| 20260905162527 | 35 | 40 | 1.6 | 3.2 | 0.00 | 0.00 | 0.00 | 65 | 1012.0 |
| 20260905162021 | 35 | 48 | 1.6 | 3.2 | 0.00 | 0.00 | 0.00 | 64 | 1012.2 |
| 20260905161520 | 35 | 295 | 1.6 | 3.2 | 0.00 | 0.00 | 0.00 | 64 | 1012.2 |
| 20260905161018 | 35 | 53 | 1.6 | 1.6 | 0.00 | 0.00 | 0.00 | 63 | 1012.4 |
| 20260905160511 | 35 | 358 | 1.6 | 3.2 | 0.00 | 0.00 | 0.00 | 65 | 1012.0 |
| 20260905160006 | 34 | 25 | 1.6 | 1.6 | 0.00 | 0.00 | 0.00 | 65 | 1012.3 |
| 20260905155506 | 33 | 97 | 1.6 | 1.6 | 0.00 | 0.00 | 0.00 | 71 | 1012.4 |
| 20260905155004 | 33 | 30 | 0.0 | 1.6 | 0.00 | 0.00 | 0.00 | 72 | 1012.5 |
| 20260905154500 | 33 | 317 | 0.0 | 3.2 | 0.00 | 0.00 | 0.00 | 69 | 1012.6 |
| 20260905153955 | 33 | 27 | 1.6 | 1.6 | 0.00 | 0.00 | 0.00 | 73 | 1012.6 |
| 20260905153452 | 32 | 50 | 1.6 | 3.2 | 0.00 | 0.00 | 0.00 | 76 | 1012.7 |
| 20260905152951 | 33 | 144 | 0.0 | 3.2 | 0.00 | 0.00 | 0.00 | 70 | 1012.6 |
| 20260905152451 | 32 | 4 | 0.0 | 1.6 | 0.00 | 0.00 | 0.00 | 74 | 1012.8 |
| 20260905151946 | 32 | 154 | 0.0 | 1.6 | 0.00 | 0.00 | 0.00 | 70 | 1012.6 |
| 20260905151441 | 32 | 46 | 1.6 | 1.6 | 0.00 | 0.00 | 0.00 | 74 | 1012.8 |
| 20260905150936 | 32 | 40 | 0.0 | 1.6 | 0.00 | 0.00 | 0.00 | 75 | 1012.8 |
| 20260905150436 | 31 | 90 | 0.0 | 1.6 | 0.00 | 0.00 | 0.00 | 77 | 1012.6 |
| 20260905145932 | 31 | 37 | 1.6 | 3.2 | 0.00 | 0.00 | 0.00 | 76 | 1012.6 |
| 20260905145427 | 31 | 52 | 0.0 | 1.6 | 0.00 | 0.00 | 0.00 | 78 | 1012.8 |
| 20260905144927 | 31 | 53 | 0.0 | 1.6 | 0.00 | 0.00 | 0.00 | 76 | 1012.7 |
| 20260905144423 | 31 | 117 | 0.0 | 1.6 | 0.00 | 0.00 | 0.00 | 80 | 1012.7 |
| 20260905143921 | 30 | 32 | 0.0 | 1.6 | 0.00 | 0.00 | 0.00 | 82 | 1012.6 |
| 20260905143415 | 30 | 60 | 1.6 | 1.6 | 0.00 | 0.00 | 0.00 | 81 | 1012.7 |
| 20260905142915 | 28 | 124 | 1.6 | 3.2 | 0.00 | 0.00 | 0.00 | 82 | 1012.7 |
| 20260905142414 | 28 | 81 | 1.6 | 1.6 | 0.00 | 0.00 | 0.00 | 88 | 1012.9 |
| 20260905141910 | 27 | 78 | 1.6 | 1.6 | 0.00 | 0.00 | 0.00 | 92 | 1013.0 |
| 20260905141404 | 26 | 72 | 0.0 | 1.6 | 0.00 | 0.00 | 0.00 | 97 | 1012.9 |
| 20260905140901 | 26 | 62 | 0.0 | 1.6 | 0.00 | 0.00 | 0.00 | 99 | 1013.0 |
| 20260905140355 | 25 | 77 | 0.0 | 1.6 | 0.00 | 0.00 | 0.00 | 99 | 1012.9 |
| 20260905135854 | 25 | 33 | 0.0 | 0.0 | 0.00 | 0.00 | 0.00 | 99 | 1012.9 |
| 20260905135350 | 25 | 56 | 0.0 | 1.6 | 0.00 | 0.00 | 0.00 | 99 | 1012.9 |
| 20260905134845 | 25 | 49 | 0.0 | 0.0 | 0.00 | 0.00 | 0.00 | 99 | 1012.8 |
| 20260905134344 | 24 | 46 | 0.0 | 0.0 | 0.00 | 0.00 | 0.00 | 99 | 1013.1 |
| 20260905133838 | 23 | 30 | 0.0 | 0.0 | 0.00 | 0.00 | 0.00 | 99 | 1013.1 |
| 20260905133334 | 23 | 63 | 0.0 | 0.0 | 0.00 | 0.00 | 0.00 | 99 | 1013.0 |
| 20260905132833 | 23 | 43 | 0.0 | 0.0 | 0.00 | 0.00 | 0.00 | 99 | 1013.1 |
| 20260905132329 | 23 | 53 | 0.0 | 0.0 | 0.00 | 0.00 | 0.00 | 99 | 1013.0 |
| 20260905131823 | 23 | 135 | 0.0 | 0.0 | 0.00 | 0.00 | 0.00 | 99 | 1013.0 |
| 20260905131319 | 23 | 135 | 0.0 | 0.0 | 0.00 | 0.00 | 0.00 | 99 | 1012.8 |
| 20260905130814 | 23 | 135 | 0.0 | 0.0 | 0.00 | 0.00 | 0.00 | 99 | 1012.9 |
| 20260905130312 | 23 | 135 | 0.0 | 0.0 | 0.00 | 0.00 | 0.00 | 99 | 1013.0 |
| 20260905125808 | 23 | 135 | 0.0 | 0.0 | 0.00 | 0.00 | 0.00 | 99 | 1012.8 |
| 20260905125305 | 23 | 187 | 0.0 | 0.0 | 0.00 | 0.00 | 0.00 | 99 | 1012.7 |
| 20260905124759 | 22 | 192 | 0.0 | 0.0 | 0.00 | 0.00 | 0.00 | 99 | 1012.9 |
| 20260905124254 | 22 | 185 | 0.0 | 0.0 | 0.00 | 0.00 | 0.00 | 99 | 1013.0 |
| 20260905123749 | 22 | 173 | 0.0 | 0.0 | 0.00 | 0.00 | 0.00 | 99 | 1012.9 |
| 20260905123247 | 22 | 173 | 0.0 | 0.0 | 0.00 | 0.00 | 0.00 | 99 | 1012.8 |
| 20260905122747 | 22 | 173 | 0.0 | 0.0 | 0.00 | 0.00 | 0.00 | 99 | 1013.0 |
| 20260905122246 | 22 | 139 | 0.0 | 0.0 | 0.00 | 0.00 | 0.00 | 99 | 1012.7 |
| 20260905121741 | 22 | 183 | 0.0 | 0.0 | 0.00 | 0.00 | 0.00 | 99 | 1012.9 |
| 20260905121238 | 22 | 184 | 0.0 | 0.0 | 0.00 | 0.00 | 0.00 | 99 | 1012.8 |
| 20260905120736 | 22 | 187 | 0.0 | 0.0 | 0.00 | 0.00 | 0.00 | 99 | 1012.8 |
| 20260905120231 | 22 | 195 | 0.0 | 0.0 | 0.00 | 0.00 | 0.00 | 99 | 1012.8 |
| 20260905115726 | 21 | 181 | 0.0 | 0.0 | 0.00 | 0.00 | 0.00 | 99 | 1012.5 |
| 20260905115225 | 21 | 184 | 0.0 | 0.0 | 0.00 | 0.00 | 0.00 | 99 | 1012.4 |
| 20260905114721 | 21 | 166 | 0.0 | 0.0 | 0.00 | 0.00 | 0.00 | 99 | 1012.6 |
| 20260905114219 | 21 | 162 | 0.0 | 0.0 | 0.00 | 0.00 | 0.00 | 99 | 1012.2 |
| 20260905113719 | 21 | 165 | 0.0 | 0.0 | 0.00 | 0.00 | 0.00 | 99 | 1012.4 |
| 20260905113214 | 21 | 165 | 0.0 | 0.0 | 0.00 | 0.00 | 0.00 | 99 | 1012.5 |
| 20260905112714 | 21 | 165 | 0.0 | 0.0 | 0.00 | 0.00 | 0.00 | 99 | 1012.3 |
| 20260905112210 | 21 | 166 | 0.0 | 0.0 | 0.00 | 0.00 | 0.00 | 99 | 1012.2 |
| 20260905111709 | 21 | 166 | 0.0 | 0.0 | 0.00 | 0.00 | 0.00 | 99 | 1012.2 |
| 20260905111209 | 21 | 166 | 0.0 | 0.0 | 0.00 | 0.00 | 0.00 | 99 | 1012.0 |
| 20260905110709 | 21 | 166 | 0.0 | 0.0 | 0.00 | 0.00 | 0.00 | 99 | 1012.0 |
| 20260905110203 | 21 | 166 | 0.0 | 0.0 | 0.00 | 0.00 | 0.00 | 99 | 1012.0 |
| 20260905105659 | 21 | 163 | 0.0 | 0.0 | 0.00 | 0.00 | 0.00 | 99 | 1011.8 |
| 20260905105157 | 21 | 164 | 0.0 | 0.0 | 0.00 | 0.00 | 0.00 | 99 | 1011.6 |
| 20260905104652 | 21 | 164 | 0.0 | 0.0 | 0.00 | 0.00 | 0.00 | 99 | 1011.7 |
| 20260905104148 | 21 | 151 | 0.0 | 0.0 | 0.00 | 0.00 | 0.00 | 99 | 1011.6 |
| 20260905103643 | 21 | 163 | 0.0 | 0.0 | 0.00 | 0.00 | 0.00 | 99 | 1011.8 |
| 20260905103139 | 21 | 163 | 0.0 | 0.0 | 0.00 | 0.00 | 0.00 | 99 | 1011.9 |
| 20260905102635 | 21 | 163 | 0.0 | 0.0 | 0.00 | 0.00 | 0.00 | 99 | 1011.7 |
| 20260905102131 | 21 | 163 | 0.0 | 0.0 | 0.00 | 0.00 | 0.00 | 99 | 1011.7 |
| 20260905101629 | 21 | 163 | 0.0 | 0.0 | 0.00 | 0.00 | 0.00 | 99 | 1011.8 |
| 20260905101128 | 21 | 163 | 0.0 | 0.0 | 0.00 | 0.00 | 0.00 | 99 | 1011.6 |
| 20260905100624 | 21 | 163 | 0.0 | 0.0 | 0.00 | 0.00 | 0.00 | 99 | 1011.7 |
| 20260905100119 | 21 | 163 | 0.0 | 0.0 | 0.00 | 0.00 | 0.00 | 99 | 1011.8 |
| 20260905095613 | 21 | 163 | 0.0 | 0.0 | 0.00 | 0.00 | 0.00 | 99 | 1011.5 |
| 20260905095108 | 21 | 163 | 0.0 | 0.0 | 0.00 | 0.00 | 0.00 | 99 | 1011.7 |
| 20260905094604 | 21 | 157 | 0.0 | 0.0 | 0.00 | 0.00 | 0.00 | 99 | 1011.4 |
| 20260905094103 | 21 | 153 | 0.0 | 0.0 | 0.00 | 0.00 | 0.00 | 99 | 1011.6 |
| 20260905093603 | 21 | 153 | 0.0 | 0.0 | 0.00 | 0.00 | 0.00 | 99 | 1011.4 |
| 20260905093059 | 21 | 152 | 0.0 | 0.0 | 0.00 | 0.00 | 0.00 | 99 | 1011.4 |
| 20260905092559 | 21 | 152 | 0.0 | 0.0 | 0.00 | 0.00 | 0.00 | 99 | 1011.4 |
| 20260905092055 | 21 | 174 | 0.0 | 0.0 | 0.00 | 0.00 | 0.00 | 99 | 1011.2 |
| 20260905091554 | 21 | 174 | 0.0 | 0.0 | 0.00 | 0.00 | 0.00 | 99 | 1011.5 |
| 20260905091049 | 21 | 174 | 0.0 | 0.0 | 0.00 | 0.00 | 0.00 | 99 | 1011.2 |
| 20260905090548 | 21 | 174 | 0.0 | 0.0 | 0.00 | 0.00 | 0.00 | 99 | 1011.1 |
| 20260905090044 | 21 | 174 | 0.0 | 0.0 | 0.00 | 0.00 | 0.00 | 99 | 1011.3 |
| 20260905085542 | 21 | 174 | 0.0 | 0.0 | 0.00 | 0.00 | 0.00 | 99 | 1011.2 |
| 20260905085038 | 21 | 175 | 0.0 | 0.0 | 0.00 | 0.00 | 0.00 | 99 | 1011.3 |
| 20260905084538 | 21 | 175 | 0.0 | 0.0 | 0.00 | 0.00 | 0.00 | 99 | 1011.4 |
| 20260905084033 | 21 | 176 | 0.0 | 0.0 | 0.00 | 0.00 | 0.00 | 99 | 1011.4 |
| 20260905083527 | 21 | 175 | 0.0 | 0.0 | 0.00 | 0.00 | 0.00 | 99 | 1011.4 |
| 20260905083025 | 21 | 175 | 0.0 | 0.0 | 0.00 | 0.00 | 0.00 | 99 | 1011.6 |
| 20260905082519 | 21 | 175 | 0.0 | 0.0 | 0.00 | 0.00 | 0.00 | 99 | 1011.4 |
| 20260905082016 | 21 | 175 | 0.0 | 0.0 | 0.00 | 0.00 | 0.00 | 99 | 1011.5 |
| 20260905081514 | 22 | 178 | 0.0 | 0.0 | 0.00 | 0.00 | 0.00 | 99 | 1011.4 |
| 20260905081009 | 22 | 178 | 0.0 | 0.0 | 0.00 | 0.00 | 0.00 | 99 | 1011.6 |
| 20260905080504 | 22 | 178 | 0.0 | 0.0 | 0.00 | 0.00 | 0.00 | 99 | 1011.3 |
| 20260905080004 | 22 | 180 | 0.0 | 0.0 | 0.00 | 0.00 | 0.00 | 99 | 1011.3 |
| 20260905075457 | 22 | 180 | 0.0 | 0.0 | 0.00 | 0.00 | 0.00 | 99 | 1011.2 |
| 20260905074956 | 22 | 170 | 0.0 | 0.0 | 0.00 | 0.00 | 0.00 | 99 | 1011.4 |
| 20260905074452 | 22 | 170 | 0.0 | 0.0 | 0.00 | 0.00 | 0.00 | 99 | 1011.4 |
| 20260905073947 | 22 | 170 | 0.0 | 0.0 | 0.00 | 0.00 | 0.00 | 99 | 1011.3 |
| 20260905073442 | 22 | 171 | 0.0 | 0.0 | 0.00 | 0.00 | 0.00 | 99 | 1011.4 |
| 20260905072938 | 22 | 166 | 0.0 | 0.0 | 0.00 | 0.00 | 0.00 | 99 | 1011.6 |
| 20260905072432 | 22 | 166 | 0.0 | 0.0 | 0.00 | 0.00 | 0.00 | 99 | 1011.5 |
| 20260905071928 | 22 | 166 | 0.0 | 0.0 | 0.00 | 0.00 | 0.00 | 99 | 1011.5 |
| 20260905071426 | 22 | 166 | 0.0 | 0.0 | 0.00 | 0.00 | 0.00 | 99 | 1011.5 |
| 20260905070924 | 22 | 162 | 0.0 | 0.0 | 0.00 | 0.00 | 0.00 | 99 | 1011.7 |
| 20260905070421 | 22 | 169 | 0.0 | 0.0 | 0.00 | 0.00 | 0.00 | 99 | 1011.8 |
| 20260905065920 | 22 | 170 | 0.0 | 0.0 | 0.00 | 0.00 | 0.00 | 99 | 1011.5 |
| 20260905065419 | 22 | 168 | 0.0 | 0.0 | 0.00 | 0.00 | 0.00 | 99 | 1011.6 |
| 20260905064914 | 22 | 168 | 0.0 | 0.0 | 0.00 | 0.00 | 0.00 | 99 | 1011.8 |
| 20260905064409 | 22 | 168 | 0.0 | 0.0 | 0.00 | 0.00 | 0.00 | 99 | 1011.7 |
| 20260905063909 | 22 | 168 | 0.0 | 0.0 | 0.00 | 0.00 | 0.00 | 99 | 1011.8 |
| 20260905063404 | 22 | 169 | 0.0 | 0.0 | 0.00 | 0.00 | 0.00 | 99 | 1011.9 |
| 20260905062900 | 22 | 169 | 0.0 | 0.0 | 0.00 | 0.00 | 0.00 | 99 | 1011.9 |
| 20260905062354 | 22 | 169 | 0.0 | 0.0 | 0.00 | 0.00 | 0.00 | 99 | 1012.0 |
| 20260905061849 | 22 | 169 | 0.0 | 0.0 | 0.00 | 0.00 | 0.00 | 99 | 1011.8 |
| 20260905061349 | 22 | 161 | 0.0 | 0.0 | 0.00 | 0.00 | 0.00 | 99 | 1012.0 |
| 20260905060843 | 22 | 159 | 0.0 | 0.0 | 0.00 | 0.00 | 0.00 | 99 | 1012.2 |
| 20260905060340 | 22 | 155 | 0.0 | 0.0 | 0.00 | 0.00 | 0.00 | 99 | 1012.0 |
| 20260905055839 | 22 | 124 | 0.0 | 0.0 | 0.00 | 0.00 | 0.00 | 99 | 1011.9 |
| 20260905055334 | 22 | 124 | 0.0 | 0.0 | 0.00 | 0.00 | 0.00 | 99 | 1012.0 |
| 20260905054833 | 22 | 124 | 0.0 | 0.0 | 0.00 | 0.00 | 0.00 | 99 | 1011.9 |
| 20260905054330 | 22 | 107 | 0.0 | 0.0 | 0.00 | 0.00 | 0.00 | 99 | 1011.8 |
| 20260905053830 | 22 | 142 | 0.0 | 0.0 | 0.00 | 0.00 | 0.00 | 99 | 1011.9 |
| 20260905053324 | 23 | 166 | 0.0 | 0.0 | 0.00 | 0.00 | 0.00 | 99 | 1011.8 |
| 20260905052820 | 23 | 148 | 0.0 | 0.0 | 0.00 | 0.00 | 0.00 | 99 | 1011.8 |
| 20260905052314 | 23 | 148 | 0.0 | 0.0 | 0.00 | 0.00 | 0.00 | 99 | 1012.0 |
| 20260905051814 | 23 | 148 | 0.0 | 0.0 | 0.00 | 0.00 | 0.00 | 99 | 1011.9 |
| 20260905051310 | 23 | 176 | 0.0 | 0.0 | 0.00 | 0.00 | 0.00 | 99 | 1011.6 |
| 20260905050807 | 23 | 176 | 0.0 | 0.0 | 0.00 | 0.00 | 0.00 | 99 | 1011.7 |
| 20260905050303 | 23 | 176 | 0.0 | 0.0 | 0.00 | 0.00 | 0.00 | 99 | 1011.9 |
| 20260905045803 | 23 | 179 | 0.0 | 0.0 | 0.00 | 0.00 | 0.00 | 99 | 1011.9 |
| 20260905045258 | 23 | 171 | 0.0 | 1.6 | 0.00 | 0.00 | 0.00 | 99 | 1011.9 |
| 20260905044753 | 23 | 173 | 1.6 | 1.6 | 0.00 | 0.00 | 0.00 | 99 | 1011.8 |
| 20260905044248 | 23 | 239 | 0.0 | 0.0 | 0.00 | 0.00 | 0.00 | 99 | 1012.2 |
| 20260905043747 | 23 | 116 | 1.6 | 1.6 | 0.00 | 0.00 | 0.00 | 99 | 1011.9 |
| 20260905043242 | 23 | 289 | 1.6 | 1.6 | 0.00 | 0.00 | 0.00 | 99 | 1012.2 |
| 20260905042737 | 23 | 358 | 0.0 | 0.0 | 0.00 | 0.00 | 0.00 | 99 | 1011.8 |
| 20260905042236 | 23 | 169 | 0.0 | 0.0 | 0.00 | 0.00 | 0.00 | 99 | 1011.9 |
| 20260905041731 | 23 | 138 | 0.0 | 0.0 | 0.00 | 0.00 | 0.00 | 99 | 1012.0 |
| 20260905041227 | 23 | 189 | 0.0 | 1.6 | 0.00 | 0.00 | 0.00 | 99 | 1012.0 |
| 20260905040722 | 23 | 171 | 0.0 | 0.0 | 0.00 | 0.00 | 0.00 | 99 | 1011.9 |
| 20260905040221 | 23 | 195 | 0.0 | 0.0 | 0.00 | 0.00 | 0.00 | 99 | 1011.9 |
| 20260905035720 | 23 | 195 | 0.0 | 0.0 | 0.00 | 0.00 | 0.00 | 99 | 1012.3 |
| 20260905035217 | 23 | 197 | 0.0 | 0.0 | 0.00 | 0.00 | 0.00 | 99 | 1012.3 |
| 20260905034713 | 23 | 173 | 1.6 | 3.2 | 0.00 | 0.00 | 0.00 | 99 | 1012.2 |
| 20260905034213 | 23 | 56 | 0.0 | 0.0 | 0.00 | 0.00 | 0.00 | 99 | 1012.2 |
| 20260905033711 | 23 | 183 | 0.0 | 0.0 | 0.00 | 0.00 | 0.00 | 99 | 1012.4 |
| 20260905033207 | 24 | 154 | 0.0 | 1.6 | 0.00 | 0.00 | 0.00 | 99 | 1012.4 |
| 20260905032707 | 24 | 187 | 0.0 | 0.0 | 0.00 | 0.00 | 0.00 | 99 | 1012.3 |
| 20260905032202 | 24 | 197 | 0.0 | 0.0 | 0.00 | 0.00 | 0.00 | 99 | 1012.4 |
| 20260905031658 | 24 | 336 | 0.0 | 0.0 | 0.00 | 0.00 | 0.00 | 99 | 1012.4 |
| 20260905031152 | 24 | 228 | 0.0 | 0.0 | 0.00 | 0.00 | 0.00 | 99 | 1012.3 |
| 20260905030648 | 24 | 255 | 0.0 | 0.0 | 0.00 | 0.00 | 0.00 | 99 | 1012.3 |
| 20260905030143 | 24 | 257 | 0.0 | 0.0 | 0.00 | 0.00 | 0.00 | 99 | 1012.5 |
| 20260905025638 | 24 | 239 | 0.0 | 0.0 | 0.00 | 0.00 | 0.00 | 99 | 1012.4 |
| 20260905025134 | 25 | 278 | 0.0 | 0.0 | 0.00 | 0.00 | 0.00 | 99 | 1012.5 |
| 20260905024629 | 25 | 202 | 0.0 | 0.0 | 0.00 | 0.00 | 0.00 | 99 | 1012.4 |
| 20260905024125 | 25 | 192 | 0.0 | 0.0 | 0.00 | 0.00 | 0.00 | 99 | 1012.8 |
| 20260905023620 | 25 | 196 | 0.0 | 0.0 | 0.00 | 0.00 | 0.00 | 99 | 1012.5 |
| 20260905023114 | 25 | 199 | 0.0 | 0.0 | 0.00 | 0.00 | 0.00 | 99 | 1012.4 |